Home   Weather   Oakville   Past weeks

Flag for Canada Past Weather in Oakville, Ontario, Canada — Yesterday and Last 2 Weeks

Now
38 °F

Chilly.


Feels Like: 35 °F
Forecast: 32 / 37 °F
Wind: 5 mph from Southwest

Location: Burlington Piers

Current Time: Feb 20, 2017 at 1:46:29 am

Latest Report: Feb 20, 2017 at 1:00 am


Visibility: N/A

Pressure: 30.17 "Hg

Humidity: 71%

Dew Point: 29 °F

Location of OakvilleLocation

Past Weather in Oakville — Graph

°F

Oakville Temperature Yesterday

Maximum temperature yesterday: 55 °F (at 2:00 pm)
Minimum temperature yesterday: 39 °F (at 11:00 pm)
Average temperature yesterday: 45 °F

High & Low Weather Summary for the Past Weeks

 TemperatureHumidityPressure
High56 °F (Feb 18, 3:00 pm)100% (Feb 12, 6:00 am)30.29 "Hg (Feb 12, 6:00 am)
Low15 °F (Feb 9, 8:00 am)41% (Feb 19, 2:00 pm)29.23 "Hg (Feb 7, 11:00 pm)
Average32 °F69%29.85 "Hg
* Reported Feb 5 12:00 am — Feb 20 12:00 am, Oakville, Weather by CustomWeather, © 2017

Note: Actual official high and low records may vary slightly from our data, if they occured in-between our weather recording intervals... More about our weather records

Advertising

Oakville Weather History for the Previous 24 Hours

Scroll right to see more
 ConditionsComfort  
Time TempWeatherWind HumidityBarometerVisibility
12:00 am
Mon, Feb 20
39 °FChilly.5 mph70%30.16 "HgN/A
11:00 pm
Sun, Feb 19
39 °FChilly.3 mph69%30.15 "HgN/A
10:00 pm40 °FChilly.3 mph69%30.14 "HgN/A
9:00 pm41 °FQuite cool.5 mph66%30.12 "HgN/A
8:00 pm44 °FQuite cool.5 mph61%30.09 "HgN/A
7:00 pm46 °FCool.6 mph54%30.07 "HgN/A
6:00 pm48 °FCool.12 mph51%30.04 "HgN/A
5:00 pm50 °FCool.12 mph50%30.00 "HgN/A
4:00 pm52 °FCool.15 mph48%29.96 "HgN/A
3:00 pm54 °FCool.15 mph42%29.93 "HgN/A
2:00 pm55 °FCool.9 mph41%29.91 "HgN/A
1:00 pm53 °FCool.6 mph51%29.90 "HgN/A
12:00 pm52 °FCool.5 mph53%29.90 "HgN/A
11:00 am46 °FCool.7 mph64%29.90 "HgN/A
10:00 am44 °FQuite cool.6 mph67%29.90 "HgN/A
9:00 am42 °FQuite cool.7 mph71%29.88 "HgN/A
8:00 am40 °FQuite cool.8 mph77%29.87 "HgN/A
7:00 am41 °FQuite cool.7 mph74%29.84 "HgN/A
6:00 am42 °FQuite cool.5 mph73%29.82 "HgN/A
5:00 am44 °FQuite cool.6 mph71%29.80 "HgN/A
4:00 am42 °FQuite cool.5 mph77%29.77 "HgN/A
3:00 am43 °FQuite cool.6 mph75%29.75 "HgN/A
2:00 am43 °FQuite cool.5 mph76%29.72 "HgN/A
1:00 am45 °FQuite cool.5 mph74%29.71 "HgN/A
Weather by CustomWeather, © 2017

See weather overviewHow to use our weather pages